KH2PM Weather Reports


time (UTC)temp
C
wind
direction
speed
KPH
gust
KPH
rain 1hr
cm
rain 24hr
cm
rain mn
cm
humidity
%
barometer
mb
20260510184004 29 333 3.2 8.0 0.00 0.00 0.00 39 1015.2
20260510183503 29 128 3.2 11.3 0.00 0.00 0.00 44 1015.2
20260510183003 28 75 3.2 4.8 0.00 0.00 0.00 41 1015.2
20260510182503 28 342 3.2 9.7 0.00 0.00 0.00 39 1015.3
20260510182004 28 184 3.2 9.7 0.00 0.00 0.00 42 1015.3
20260510181504 28 280 3.2 8.0 0.00 0.00 0.00 42 1015.3
20260510181004 28 296 4.8 9.7 0.00 0.00 0.00 43 1015.3
20260510180503 28 326 3.2 4.8 0.00 0.00 0.00 42 1015.4
20260510180003 28 71 0.0 3.2 0.00 0.00 0.00 41 1015.4
20260510175504 28 242 3.2 4.8 0.00 0.00 0.00 39 1015.4
20260510175004 28 249 1.6 4.8 0.00 0.00 0.00 42 1015.5
20260510174503 28 144 4.8 8.0 0.00 0.00 0.00 42 1015.4
20260510174003 28 290 3.2 9.7 0.00 0.00 0.00 41 1015.4
20260510173003 28 87 1.6 9.7 0.00 0.00 0.00 39 1015.5
20260510172504 28 244 4.8 9.7 0.00 0.00 0.00 43 1015.5
20260510171504 28 331 1.6 4.8 0.00 0.00 0.00 42 1015.5
20260510171003 28 217 3.2 4.8 0.00 0.00 0.00 47 1015.5
20260510170504 28 16 3.2 9.7 0.00 0.00 0.00 42 1015.6
20260510170003 28 31 3.2 8.0 0.00 0.00 0.00 44 1015.6
20260510165504 28 264 3.2 4.8 0.00 0.00 0.00 45 1015.6
20260510165004 27 342 4.8 9.7 0.00 0.00 0.00 45 1015.6
20260510164504 28 106 3.2 9.7 0.00 0.00 0.00 46 1015.6
20260510164003 28 49 3.2 12.9 0.00 0.00 0.00 47 1015.7
20260510163504 28 133 3.2 4.8 0.00 0.00 0.00 49 1015.7
20260510163004 27 339 3.2 8.0 0.00 0.00 0.00 48 1015.8
20260510162504 27 12 4.8 8.0 0.00 0.00 0.00 46 1015.8
20260510162004 27 27 4.8 8.0 0.00 0.00 0.00 45 1015.9
20260510161504 27 357 4.8 14.5 0.00 0.00 0.00 47 1015.9
20260510160503 27 219 4.8 8.0 0.00 0.00 0.00 54 1016.0
20260510160003 26 144 3.2 8.0 0.00 0.00 0.00 53 1016.0
20260510155504 26 71 3.2 4.8 0.00 0.00 0.00 51 1016.1
20260510155004 26 294 3.2 9.7 0.00 0.00 0.00 52 1016.2
20260510154503 26 359 4.8 4.8 0.00 0.00 0.00 52 1016.2
20260510154004 26 45 3.2 4.8 0.00 0.00 0.00 52 1016.2
20260510153503 26 351 4.8 12.9 0.00 0.00 0.00 53 1016.2
20260510152504 26 54 1.6 9.7 0.00 0.00 0.00 52 1016.3
20260510151503 25 121 1.6 9.7 0.00 0.00 0.00 56 1016.2
20260510151004 25 154 3.2 8.0 0.00 0.00 0.00 59 1016.2
20260510150504 25 42 6.4 12.9 0.00 0.00 0.00 61 1016.1
20260510150004 25 12 3.2 8.0 0.00 0.00 0.00 60 1016.1
20260510145503 25 332 3.2 4.8 0.00 0.00 0.00 62 1016.1
20260510145004 24 153 1.6 4.8 0.00 0.00 0.00 65 1016.1
20260510144504 24 8 4.8 8.0 0.00 0.00 0.00 65 1016.1
20260510144004 24 3 4.8 9.7 0.00 0.00 0.00 63 1016.1
20260510143504 24 52 3.2 8.0 0.00 0.00 0.00 63 1016.0
20260510143004 24 341 3.2 11.3 0.00 0.00 0.00 65 1016.0
20260510142004 23 355 0.0 3.2 0.00 0.00 0.00 67 1016.0
20260510141504 23 241 1.6 4.8 0.00 0.00 0.00 71 1015.9
20260510141003 23 207 3.2 8.0 0.00 0.00 0.00 70 1016.1
20260510140504 23 294 3.2 4.8 0.00 0.00 0.00 70 1016.1
20260510140004 23 320 3.2 4.8 0.00 0.00 0.00 71 1016.1
20260510135504 22 337 3.2 4.8 0.00 0.00 0.00 73 1016.0
20260510134504 23 314 3.2 8.0 0.00 0.00 0.00 71 1016.0
20260510134004 23 208 3.2 9.7 0.00 0.00 0.00 70 1015.9
20260510133504 22 350 0.0 4.8 0.00 0.00 0.00 75 1015.9
20260510133004 22 287 1.6 4.8 0.00 0.00 0.00 78 1016.0
20260510132504 22 260 1.6 4.8 0.00 0.00 0.00 75 1015.9
20260510131004 21 75 1.6 3.2 0.00 0.00 0.00 81 1015.8
20260510130004 21 332 1.6 4.8 0.00 0.00 0.00 84 1015.8
20260510125004 20 242 1.6 4.8 0.00 0.00 0.00 85 1015.6
20260510124503 20 258 1.6 4.8 0.00 0.00 0.00 87 1015.6
20260510124004 20 341 1.6 4.8 0.00 0.00 0.00 88 1015.6
20260510122509 18 322 1.6 9.7 0.00 0.00 0.00 92 1015.4
20260510122004 18 352 3.2 4.8 0.00 0.00 0.00 92 1015.4
20260510121504 18 321 1.6 4.8 0.00 0.00 0.00 93 1015.3
20260510121003 18 126 1.6 4.8 0.00 0.00 0.00 94 1015.3
20260510120504 18 304 0.0 3.2 0.00 0.00 0.00 96 1015.2
20260510120004 18 282 0.0 3.2 0.00 0.00 0.00 96 1015.3
20260510115503 18 274 0.0 0.0 0.00 0.00 0.00 97 1015.2
20260510114504 17 268 0.0 0.0 0.00 0.00 0.00 97 1015.1
20260510114004 17 268 0.0 0.0 0.00 0.00 0.00 96 1015.1
20260510113504 16 132 0.0 0.0 0.00 0.00 0.00 96 1015.0
20260510113004 16 132 0.0 0.0 0.00 0.00 0.00 96 1014.9
20260510111504 16 132 0.0 0.0 0.00 0.00 0.00 96 1014.5
20260510111004 15 132 0.0 0.0 0.00 0.00 0.00 96 1014.5
20260510110504 15 132 0.0 0.0 0.00 0.00 0.00 95 1014.4
20260510110005 15 132 0.0 0.0 0.00 0.00 0.00 95 1014.4
20260510105004 15 132 0.0 0.0 0.00 0.00 0.00 95 1014.3
20260510104503 15 132 0.0 0.0 0.00 0.00 0.00 95 1014.2
20260510103504 15 132 0.0 0.0 0.00 0.00 0.00 95 1014.1
20260510103004 15 132 0.0 0.0 0.00 0.00 0.00 95 1014.0
20260510102504 15 132 0.0 0.0 0.00 0.00 0.00 95 1013.9
20260510102003 15 132 0.0 0.0 0.00 0.00 0.00 95 1013.9
20260510101504 15 132 0.0 0.0 0.00 0.00 0.00 95 1013.8
20260510101004 15 132 0.0 0.0 0.00 0.00 0.00 95 1013.8
20260510100503 15 132 0.0 0.0 0.00 0.00 0.00 95 1013.7
20260510095004 15 132 0.0 0.0 0.00 0.00 0.00 95 1013.6
20260510094503 15 132 0.0 0.0 0.00 0.00 0.00 95 1013.6
20260510094003 15 132 0.0 0.0 0.00 0.00 0.00 95 1013.6
20260510093504 15 132 0.0 0.0 0.00 0.00 0.00 95 1013.6
20260510093004 16 132 0.0 0.0 0.00 0.00 0.00 95 1013.4
20260510092504 16 132 0.0 0.0 0.00 0.00 0.00 95 1013.3
20260510092004 16 171 0.0 0.0 0.00 0.00 0.00 95 1013.4
20260510091504 16 171 0.0 0.0 0.00 0.00 0.00 95 1013.2
20260510091004 16 142 0.0 0.0 0.00 0.00 0.00 95 1013.2
20260510090504 16 142 0.0 0.0 0.00 0.00 0.00 95 1013.1
20260510090004 16 142 0.0 0.0 0.00 0.00 0.00 95 1013.0
20260510085004 16 142 0.0 0.0 0.00 0.00 0.00 95 1012.9
20260510084504 16 142 0.0 0.0 0.00 0.00 0.00 95 1012.9
20260510084004 16 142 0.0 0.0 0.00 0.00 0.00 95 1012.8
20260510083504 16 142 0.0 0.0 0.00 0.00 0.00 95 1012.7
20260510083003 16 142 0.0 0.0 0.00 0.00 0.00 95 1012.6
20260510082503 16 142 0.0 0.0 0.00 0.00 0.00 95 1012.6
20260510081504 16 142 0.0 0.0 0.00 0.00 0.00 95 1012.7
20260510081005 16 142 0.0 0.0 0.00 0.00 0.00 95 1012.6
20260510080503 16 142 0.0 0.0 0.00 0.00 0.00 95 1012.7
20260510080003 16 142 0.0 0.0 0.00 0.00 0.00 95 1012.6
20260510075504 16 142 0.0 0.0 0.00 0.00 0.00 95 1012.6
20260510075003 16 142 0.0 0.0 0.00 0.00 0.00 95 1012.7
20260510074503 16 142 0.0 0.0 0.00 0.00 0.00 95 1012.6
20260510074003 16 142 0.0 0.0 0.00 0.00 0.00 95 1012.6
20260510073504 16 142 0.0 0.0 0.00 0.00 0.00 95 1012.6
20260510072503 16 142 0.0 0.0 0.00 0.00 0.00 95 1012.7
20260510072003 16 142 0.0 0.0 0.00 0.00 0.00 95 1012.5
20260510071503 16 142 0.0 0.0 0.00 0.00 0.00 95 1012.5
20260510071004 16 142 0.0 0.0 0.00 0.00 0.00 95 1012.5
20260510070504 16 142 0.0 0.0 0.00 0.00 0.00 95 1012.5
20260510070004 16 142 0.0 0.0 0.00 0.00 0.00 95 1012.4
20260510065503 16 142 0.0 0.0 0.00 0.00 0.00 95 1012.5
20260510065003 16 142 0.0 0.0 0.00 0.00 0.00 95 1012.6
20260510064004 16 142 0.0 0.0 0.00 0.00 0.00 94 1012.6
20260510063503 16 159 0.0 0.0 0.00 0.00 0.00 94 1012.7
20260510063003 16 159 0.0 0.0 0.00 0.00 0.00 94 1012.6
20260510062503 16 159 0.0 0.0 0.00 0.00 0.00 95 1012.5
20260510062004 16 159 0.0 0.0 0.00 0.00 0.00 95 1012.5
20260510061504 16 159 0.0 0.0 0.00 0.00 0.00 95 1012.5
20260510061003 16 159 0.0 0.0 0.00 0.00 0.00 95 1012.4
20260510060503 16 159 0.0 0.0 0.00 0.00 0.00 95 1012.6
20260510060003 16 159 0.0 0.0 0.00 0.00 0.00 95 1012.6
20260510055503 16 159 0.0 0.0 0.00 0.00 0.00 95 1012.6
20260510055003 16 159 0.0 1.6 0.00 0.00 0.00 94 1012.6
20260510054504 16 159 0.0 1.6 0.00 0.00 0.00 94 1012.7
20260510054004 16 159 0.0 1.6 0.00 0.00 0.00 94 1012.8
20260510053504 16 159 0.0 1.6 0.00 0.00 0.00 94 1012.9
20260510053004 16 159 0.0 1.6 0.00 0.00 0.00 94 1012.8
20260510052504 16 159 0.0 1.6 0.00 0.00 0.00 94 1012.8
20260510052004 16 159 0.0 1.6 0.00 0.00 0.00 94 1013.0
20260510051504 16 159 0.0 0.0 0.00 0.00 0.00 94 1013.0
20260510051004 16 159 0.0 1.6 0.00 0.00 0.00 94 1013.1
20260510050503 16 159 0.0 0.0 0.00 0.00 0.00 94 1013.2
20260510050006 16 159 0.0 1.6 0.00 0.00 0.00 94 1013.1
20260510045504 16 159 0.0 1.6 0.00 0.00 0.00 94 1013.0
20260510045004 16 159 0.0 1.6 0.00 0.00 0.00 94 1013.2
20260510044504 16 159 0.0 0.0 0.00 0.00 0.00 94 1013.2
20260510043504 16 159 0.0 0.0 0.00 0.00 0.00 94 1013.2
20260510043004 16 159 0.0 0.0 0.00 0.00 0.00 94 1013.2
20260510042504 16 159 0.0 1.6 0.00 0.00 0.00 94 1013.3
20260510042004 16 159 0.0 1.6 0.00 0.00 0.00 93 1013.3
20260510041503 16 159 0.0 1.6 0.00 0.00 0.00 93 1013.2
20260510041003 16 159 0.0 0.0 0.00 0.00 0.00 94 1013.1
20260510040504 16 159 0.0 0.0 0.00 0.00 0.00 94 1013.0
20260510040003 16 159 0.0 0.0 0.00 0.00 0.00 94 1013.1
20260510035004 16 159 0.0 0.0 0.00 0.00 0.00 94 1013.2
20260510034504 16 159 0.0 0.0 0.00 0.00 0.00 94 1013.0
20260510034004 16 159 0.0 0.0 0.00 0.00 0.00 94 1013.0
20260510033504 16 159 0.0 0.0 0.00 0.00 0.00 93 1013.1
20260510033004 16 159 0.0 0.0 0.00 0.00 0.00 93 1013.0
20260510032504 16 159 0.0 0.0 0.00 0.00 0.00 93 1013.0
20260510032004 16 159 0.0 0.0 0.00 0.00 0.00 93 1013.0
20260510031504 17 159 0.0 0.0 0.00 0.00 0.00 93 1013.0
20260510031004 17 159 0.0 0.0 0.00 0.00 0.00 93 1012.9
20260510030504 17 159 0.0 0.0 0.00 0.00 0.00 93 1012.9
20260510030004 17 159 0.0 0.0 0.00 0.00 0.00 93 1012.8
20260510025504 17 159 0.0 0.0 0.00 0.00 0.00 93 1012.8
20260510025003 17 159 0.0 0.0 0.00 0.00 0.00 93 1012.8
20260510023504 17 159 0.0 0.0 0.00 0.00 0.00 92 1012.7
20260510023004 17 159 0.0 0.0 0.00 0.00 0.00 91 1012.7
20260510022003 17 159 0.0 0.0 0.00 0.00 0.00 92 1012.7
20260510021504 17 159 0.0 0.0 0.00 0.00 0.00 92 1012.7
20260510021004 17 159 0.0 0.0 0.00 0.00 0.00 92 1012.7
20260510020504 17 159 0.0 0.0 0.00 0.00 0.00 91 1012.6
20260510020003 17 159 0.0 0.0 0.00 0.00 0.00 91 1012.4
20260510015004 17 159 0.0 0.0 0.00 0.00 0.00 91 1012.4
20260510014504 17 159 0.0 0.0 0.00 0.00 0.00 92 1012.4
20260510013504 17 159 0.0 0.0 0.00 0.00 0.00 91 1012.1
20260510013004 17 159 0.0 0.0 0.00 0.00 0.00 91 1011.8
20260510012504 17 159 0.0 0.0 0.00 0.00 0.00 90 1011.9
20260510012004 17 159 0.0 0.0 0.00 0.00 0.00 90 1011.8
20260510011504 18 159 0.0 0.0 0.00 0.00 0.00 89 1011.8
20260510011004 18 159 0.0 0.0 0.00 0.00 0.00 89 1011.7
20260510010503 18 159 0.0 0.0 0.00 0.00 0.00 88 1011.6
20260510010004 18 159 0.0 0.0 0.00 0.00 0.00 87 1011.6
20260510005504 18 159 0.0 0.0 0.00 0.00 0.00 87 1011.6
20260510005003 18 159 0.0 0.0 0.00 0.00 0.00 86 1011.6
20260510004504 18 159 0.0 0.0 0.00 0.00 0.00 85 1011.5
20260510004004 19 159 0.0 0.0 0.00 0.00 0.00 84 1011.6
20260510003504 19 159 0.0 0.0 0.00 0.00 0.00 85 1011.5
20260510003004 20 159 0.0 0.0 0.00 0.00 0.00 84 1011.5
20260510002503 20 159 0.0 0.0 0.00 0.00 0.00 82 1011.4
20260510002003 20 159 0.0 0.0 0.00 0.00 0.00 82 1011.5
20260510001504 20 159 0.0 0.0 0.00 0.00 0.00 82 1011.5
20260510000504 21 159 0.0 0.0 0.00 0.00 0.00 79 1011.6
20260510000003 21 159 0.0 0.0 0.00 0.00 0.00 78 1011.5
20260509235504 21 159 0.0 0.0 0.00 0.00 0.00 78 1011.5
20260509235004 21 159 0.0 0.0 0.00 0.00 0.00 77 1011.4
20260509234503 22 159 0.0 1.6 0.00 0.00 0.00 77 1011.3
20260509233504 22 159 0.0 3.2 0.00 0.00 0.00 75 1011.3
20260509232504 22 83 0.0 1.6 0.00 0.00 0.00 75 1011.1
20260509232004 22 83 0.0 0.0 0.00 0.00 0.00 74 1010.9
20260509231504 22 83 0.0 3.2 0.00 0.00 0.00 73 1010.8
20260509231004 23 242 1.6 3.2 0.00 0.00 0.00 74 1010.9
20260509230504 23 154 1.6 4.8 0.00 0.00 0.00 73 1010.9
20260509225504 23 220 3.2 4.8 0.00 0.00 0.00 72 1010.7
20260509224503 23 198 3.2 4.8 0.00 0.00 0.00 73 1010.7
20260509224004 23 189 0.0 4.8 0.00 0.00 0.00 73 1010.6
20260509223004 23 293 0.0 3.2 0.00 0.00 0.00 73 1010.8
20260509222003 23 271 0.0 3.2 0.00 0.00 0.00 73 1010.7
20260509221504 23 299 1.6 4.8 0.00 0.00 0.00 74 1010.7
20260509221004 23 279 1.6 3.2 0.00 0.00 0.00 73 1010.8
20260509220503 23 230 1.6 4.8 0.00 0.00 0.00 73 1010.8
20260509220004 23 145 1.6 3.2 0.00 0.00 0.00 72 1010.8
20260509215503 23 131 1.6 4.8 0.00 0.00 0.00 71 1010.9
20260509214003 23 220 1.6 4.8 0.00 0.00 0.00 71 1010.8
20260509213504 23 288 1.6 4.8 0.00 0.00 0.00 70 1010.7
20260509213004 23 243 1.6 4.8 0.00 0.00 0.00 72 1010.5
20260509212503 23 157 1.6 4.8 0.00 0.00 0.00 71 1010.6
20260509212003 23 192 1.6 4.8 0.00 0.00 0.00 71 1010.8
20260509211504 23 243 3.2 4.8 0.00 0.00 0.00 71 1010.7
20260509211004 23 189 1.6 4.8 0.00 0.00 0.00 70 1010.6
20260509210004 23 290 1.6 4.8 0.00 0.00 0.00 70 1010.7
20260509205504 23 251 3.2 4.8 0.00 0.00 0.00 70 1010.8
20260509205003 23 98 1.6 4.8 0.00 0.00 0.00 71 1010.6
20260509204503 23 173 4.8 8.0 0.00 0.00 0.00 69 1010.5
20260509203503 23 40 1.6 4.8 0.00 0.00 0.00 71 1010.6
20260509203003 23 227 1.6 4.8 0.00 0.00 0.00 72 1010.8
20260509202504 22 234 1.6 4.8 0.00 0.00 0.00 71 1010.6
20260509202004 22 228 4.8 8.0 0.00 0.00 0.00 71 1010.5
20260509201503 22 157 4.8 9.7 0.00 0.00 0.00 71 1010.7
20260509201003 22 229 3.2 9.7 0.00 0.00 0.00 72 1010.9
20260509200504 22 214 1.6 11.3 0.00 0.00 0.00 71 1010.9
20260509200003 22 280 3.2 4.8 0.00 0.00 0.00 71 1010.9
20260509195503 22 91 4.8 8.0 0.00 0.00 0.00 71 1010.9
20260509195003 22 140 1.6 4.8 0.00 0.00 0.00 72 1011.0
20260509193504 22 182 1.6 4.8 0.00 0.00 0.00 71 1011.0
20260509193003 22 282 3.2 8.0 0.00 0.00 0.00 70 1011.2
20260509192504 22 222 4.8 11.3 0.00 0.00 0.00 69 1011.3
20260509191004 23 146 1.6 4.8 0.00 0.00 0.00 69 1011.4
20260509190004 23 188 1.6 8.0 0.00 0.00 0.00 70 1011.3
20260509185003 23 127 3.2 9.7 0.00 0.00 0.00 65 1011.2